Location: *
(60.1759°S, 155.0663°W)
Time: 16:28:31
(UTC+00:00)

Cosmos 1707 Rocket - Pass Details

Date: 17 September 2019
Orbit: 604 x 633 km, 82.5° (Epoch: 14 October)

Event Time Altitude Azimuth Distance (km) Brightness Sun altitude
Rises 12:12:44 0° 194° (SSW) 2,961 7.6 -27.8°
Reaches altitude 10° 12:15:00 10° 191° (S) 2,051 6.7 -27.7°
Enters shadow 12:19:00 61° 150° (SSE) 737 4.1 -27.4°
